Theta_e
349 349 349 348 347 348 350 351 350 351 351 351 351 352 353 352 353 354 353 353 353 352 352 352 354 354 355 355 355 354 355 354 353 354 354 354 353 354 354 354 353 354
350 349 348 348 347 347 349 350 350 350 351 352 352 352 352 352 352 353 353 353 353 353 353 353 354 354 355 356 356 355 355 355 354 355 355 355 355 357 356 355 353 354
349 350 349 350 349 348 348 349 350 351 351 351 353 353 352 351 352 352 353 354 354 353 353 353 354 355 356 357 357 357 356 356 356 356 356 356 357 358 358 357 355 355
348 349 350 350 350 350 349 349 350 352 352 351 352 354 353 353 353 352 353 354 354 354 353 353 354 355 356 357 357 357 356 356 356 356 356 356 356 357 358 358 357 357
349 349 350 350 350 351 351 351 352 353 354 352 353 354 353 353 354 353 353 353 353 354 354 354 354 355 356 357 357 357 356 356 357 356 356 356 356 356 356 357 357 357
353 351 352 352 350 350 351 352 353 353 354 354 354 354 354 353 353 353 353 352 352 354 354 354 354 356 356 356 358 358 356 355 356 357 358 357 357 356 356 357 357 358
354 354 354 354 352 351 351 351 351 352 352 353 355 354 354 354 353 353 353 352 352 353 353 354 354 356 357 357 357 358 359 358 357 358 358 358 359 359 358 358 359 359
353 354 354 354 354 353 352 351 351 351 350 351 353 354 354 355 354 353 354 353 353 353 353 354 355 356 356 356 357 358 359 359 359 359 359 359 360 360 359 359 359 358
353 353 354 355 355 354 354 353 352 352 351 350 351 352 352 353 354 353 352 353 353 354 354 355 355 356 356 356 357 358 358 359 360 360 359 359 360 360 359 360 359 358
355 354 354 354 354 354 354 354 354 353 351 350 350 351 352 353 352 351 351 352 353 354 355 356 356 356 357 357 357 357 357 358 359 359 359 359 359 359 358 358 358 358
354 355 356 355 354 354 354 354 354 352 349 348 349 349 351 351 352 351 350 351 351 353 355 355 355 356 357 358 357 356 356 356 358 359 358 358 358 357 356 355 356 356
351 352 355 355 355 354 354 354 353 351 349 348 349 349 349 349 349 350 350 351 352 353 354 354 355 355 356 357 356 355 355 356 357 357 357 356 356 355 354 354 354 355
351 351 352 354 355 355 354 353 352 351 350 349 349 349 349 348 348 348 349 351 352 353 354 354 354 354 355 355 355 355 355 355 355 355 355 354 353 353 353 354 355 355
351 351 350 350 352 353 353 352 352 352 352 352 351 350 350 349 348 348 348 349 351 353 353 354 355 355 356 356 355 355 354 354 355 355 354 352 351 351 353 354 355 355
351 351 352 353 354 354 354 353 353 353 353 353 353 352 351 351 350 348 348 347 347 349 352 353 354 355 356 356 356 355 355 355 355 355 355 353 352 352 353 355 357 357
354 354 356 358 358 356 355 355 355 354 355 354 353 353 353 353 352 351 349 348 347 348 352 354 354 355 356 355 355 355 355 355 357 357 357 357 356 354 353 355 357 358
358 360 361 360 359 357 356 356 355 355 355 353 354 354 354 354 354 353 350 348 348 348 351 354 355 354 354 354 354 355 356 357 358 358 358 357 357 356 354 355 357 358
355 357 360 360 359 359 357 356 356 355 354 354 355 356 355 355 354 353 351 349 348 347 348 350 351 351 352 353 353 352 353 356 356 356 357 357 357 356 355 354 354 352
352 352 352 353 355 358 358 357 356 357 356 356 357 357 356 355 353 352 352 351 349 348 347 348 348 349 350 351 349 347 348 352 354 355 357 356 355 355 353 351 348 345
352 352 351 351 352 355 356 357 357 356 355 355 356 355 355 354 353 353 353 352 350 348 347 347 347 347 348 349 349 348 349 351 353 354 355 353 353 352 350 349 346 344
350 350 351 351 352 352 353 354 353 352 351 351 353 354 354 353 352 352 351 349 347 345 344 345 345 345 347 348 348 349 349 350 351 351 352 351 351 350 348 348 346 344
348 348 349 349 350 350 350 350 350 349 349 350 352 353 353 352 350 349 347 345 343 341 342 343 344 345 347 348 348 348 348 349 351 351 352 351 349 347 346 345 343 341
348 348 347 347 347 347 348 349 349 349 349 350 351 351 350 349 346 344 342 340 338 338 339 341 342 343 345 346 347 348 349 350 351 350 350 348 346 344 342 341 340 336
346 346 346 345 345 345 346 347 347 347 347 348 348 348 346 344 343 341 338 337 337 337 336 336 336 338 341 343 345 347 348 349 348 347 345 343 342 340 339 338 334 330
345 345 344 343 344 344 344 345 344 343 343 344 344 343 342 340 340 338 336 335 335 334 334 333 332 332 335 338 341 343 345 344 343 342 342 341 339 336 332 328 324 325
343 343 343 342 342 342 342 342 342 341 341 341 340 340 339 337 336 335 333 331 330 330 330 330 328 326 328 330 333 334 337 339 339 338 337 336 333 328 325 322 323 328
Wind_Speed
20 21 20 17 17 17 16 17 17 16 16 16 16 16 16 15 14 14 14 13 12 13 12 12 12 12 12 12 11 11 10 10 10 9 9 8 7 7 7 6 6 6
21 20 18 17 18 19 18 17 16 16 17 16 16 16 16 15 15 16 16 15 14 15 14 13 13 13 14 13 13 12 11 11 11 11 10 9 8 8 8 8 8 7
24 21 19 18 18 20 19 18 17 16 18 18 17 17 17 16 15 16 17 16 17 17 16 15 15 15 15 15 14 14 14 13 13 12 12 12 10 10 10 9 9 9
26 24 21 19 18 19 19 19 18 16 17 18 18 17 18 17 16 17 18 18 19 19 18 16 16 16 16 15 15 16 16 15 14 13 13 13 13 13 12 11 10 11
26 25 23 22 20 19 18 18 18 17 16 17 18 17 18 17 17 18 19 19 20 20 19 17 17 16 16 16 16 16 16 17 15 13 13 13 13 13 13 12 12 12
25 25 24 23 22 21 20 19 19 19 18 18 18 18 18 18 17 17 18 19 20 19 19 18 17 17 17 17 16 15 15 16 16 15 14 14 12 12 13 13 13 13
25 25 24 23 22 21 21 21 21 21 21 20 20 19 19 19 18 18 18 19 19 19 19 19 19 19 19 19 18 17 15 15 15 15 15 14 12 12 12 13 14 14
26 26 25 24 23 22 22 22 22 22 21 21 22 21 21 20 20 18 18 20 21 21 21 20 19 20 19 19 19 19 17 16 16 16 16 15 14 13 12 13 15 15
26 26 26 26 25 24 24 23 22 22 22 23 23 22 21 20 20 18 18 20 21 22 22 21 20 20 20 20 20 20 19 18 18 18 18 17 17 15 13 14 14 14
25 27 27 28 28 27 26 24 21 19 19 20 21 23 24 22 21 19 18 20 22 22 22 21 20 19 20 20 20 20 20 20 20 20 19 18 18 16 15 14 15 15
21 27 30 30 28 28 27 24 21 16 14 13 12 16 21 22 22 21 20 20 23 24 23 21 20 20 20 21 20 19 19 19 20 19 18 18 17 16 15 15 16 16
19 21 27 31 30 28 26 24 20 16 13 11 8 8 10 13 15 19 21 22 24 25 24 23 22 20 21 21 20 19 19 18 18 18 18 18 17 16 15 16 16 16
22 16 18 25 28 27 25 22 19 15 13 11 10 8 7 7 7 9 15 20 24 26 25 24 23 22 22 21 20 19 18 17 17 18 17 16 15 14 14 14 15 15
26 20 16 18 21 21 20 18 15 12 11 10 10 10 10 9 8 6 8 12 17 23 25 24 22 21 21 20 20 19 18 17 16 15 14 12 12 12 11 12 13 13
21 21 20 18 17 16 15 14 11 10 10 9 9 9 9 9 9 8 7 7 8 13 20 23 21 20 20 19 18 17 16 15 13 12 12 13 14 13 12 11 12 12
18 18 18 16 14 12 11 9 8 8 8 8 8 8 8 8 8 7 7 7 7 8 13 17 19 19 20 19 17 15 14 13 11 10 12 13 13 13 13 12 12 11
16 15 14 12 10 9 8 6 4 5 6 7 7 7 7 6 6 6 6 8 9 10 12 14 16 18 18 18 17 15 13 12 11 11 12 11 10 12 13 13 12 11
5 7 8 7 6 6 5 4 4 6 6 6 6 5 5 4 5 7 8 10 11 12 13 14 15 16 16 16 15 11 9 9 10 12 12 11 11 11 11 11 10 9
3 3 3 2 2 3 3 4 5 6 6 6 5 4 3 3 5 9 10 11 12 13 13 13 13 13 13 13 13 12 12 12 12 12 10 9 8 8 8 8 9 10
5 4 3 3 4 4 4 5 5 5 5 5 4 4 4 4 7 10 11 12 13 12 12 12 11 11 10 9 9 10 11 11 11 10 7 5 6 7 7 5 5 5
2 2 4 4 4 3 4 5 5 5 5 5 5 5 6 7 10 12 12 12 12 11 11 10 9 8 7 7 7 8 9 10 10 9 7 6 5 4 4 4 3 2
2 2 3 3 3 3 3 2 3 4 5 5 6 8 8 9 11 11 11 11 10 8 8 8 7 7 7 7 7 7 8 9 9 9 8 6 4 3 4 4 3 4
6 5 5 5 6 6 7 6 6 7 8 8 9 11 11 10 9 9 8 8 6 6 6 7 7 7 7 8 8 8 8 9 10 9 7 6 6 7 7 6 5 5
9 10 10 10 9 9 10 10 11 11 11 10 11 10 10 9 8 9 9 7 7 7 7 7 8 9 8 8 9 8 9 10 10 9 10 11 12 10 8 7 8 8
13 14 14 13 12 12 12 12 12 13 13 12 12 12 12 11 11 11 12 11 11 10 9 9 12 13 11 10 9 8 7 8 8 10 13 14 13 10 8 8 9 9
15 15 15 14 14 13 13 13 13 14 15 15 16 16 16 15 15 15 16 15 14 14 13 13 13 15 15 14 13 10 9 8 9 12 14 13 11 10 9 8 9 9
Wind_Direction
203 208 212 218 218 209 202 204 207 210 213 217 221 226 230 235 239 239 240 240 232 225 224 226 230 237 239 237 240 243 242 247 248 242 247 256 257 262 273 272 260 266
208 212 215 220 217 211 210 211 211 214 219 223 228 232 233 235 238 240 241 241 237 233 229 228 232 237 240 239 243 246 245 244 242 240 246 253 256 265 275 275 270 271
210 214 217 219 216 211 211 213 216 222 225 228 233 237 237 239 239 239 240 241 242 240 236 233 234 237 241 244 247 251 251 249 249 247 250 252 254 264 273 272 271 276
210 213 217 219 217 211 209 212 218 225 226 226 230 236 238 240 241 238 237 240 243 242 236 233 235 239 243 247 250 252 251 251 255 257 257 258 256 261 270 271 270 276
212 213 216 220 221 216 213 216 221 225 226 226 230 236 237 236 238 239 239 240 241 238 232 232 235 239 243 246 248 250 248 248 253 258 261 262 261 264 268 270 272 278
215 215 216 219 223 222 221 222 223 226 229 232 237 239 237 236 237 238 239 238 234 229 227 230 234 237 241 244 245 246 246 246 248 252 257 261 265 268 268 268 271 275
216 217 218 219 221 223 224 225 226 227 228 230 234 236 236 237 236 236 239 235 227 227 230 233 235 238 240 242 244 245 245 246 248 250 254 259 267 273 273 270 267 267
218 219 220 220 220 222 224 225 229 232 232 231 233 234 236 238 235 236 242 238 230 231 234 235 237 241 242 242 244 246 247 249 251 251 252 254 260 268 269 266 264 263
220 222 222 222 221 222 225 227 231 238 240 238 238 238 236 236 234 235 238 237 234 234 234 234 238 241 244 245 246 247 248 250 251 251 252 252 256 261 262 265 266 263
223 224 224 225 222 222 225 228 233 240 241 238 239 240 236 231 231 231 230 231 234 235 233 233 236 239 242 244 244 245 247 249 250 251 251 253 257 261 261 265 267 266
237 232 226 224 223 222 223 227 233 237 232 226 228 232 232 230 230 229 227 228 231 233 233 234 237 238 239 241 243 245 247 249 249 249 251 255 260 263 262 260 262 266
234 243 232 225 223 223 223 224 229 230 225 220 213 207 214 223 228 229 231 232 231 231 233 235 237 237 237 239 243 246 245 246 247 249 253 257 259 261 259 257 258 264
207 226 235 227 220 219 220 220 223 225 226 228 228 222 218 221 226 228 232 234 233 231 233 235 237 236 236 239 241 242 243 243 245 249 254 259 262 263 260 256 257 263
202 205 222 228 217 211 212 215 218 221 225 231 235 238 239 242 247 243 235 235 234 232 234 236 236 234 233 235 238 239 239 240 241 244 247 251 254 255 254 254 259 266
207 202 206 213 209 204 205 209 213 216 224 233 240 245 247 249 253 255 250 243 235 233 234 234 232 228 225 225 227 229 231 234 235 235 239 245 247 245 244 245 253 262
203 198 197 197 192 189 193 199 209 221 231 239 244 250 254 251 247 245 241 233 223 220 222 222 220 219 219 217 217 219 224 228 226 225 232 242 250 251 247 243 247 257
193 189 184 183 178 176 179 181 203 236 248 252 250 248 247 243 235 224 210 204 204 201 201 202 204 207 213 216 214 214 218 217 213 220 230 236 248 254 248 240 241 250
145 142 143 149 154 159 164 175 212 236 242 242 240 235 235 229 212 203 197 197 201 200 197 197 199 203 208 211 210 215 230 231 222 223 231 236 242 249 245 241 249 264
115 85 86 98 149 166 157 168 199 211 211 213 215 217 225 208 193 196 199 201 203 203 203 203 201 203 207 207 211 224 237 239 230 225 230 234 232 235 242 262 289 302
201 185 179 190 203 197 165 156 177 196 206 208 203 200 197 187 193 199 199 198 199 199 201 202 199 198 201 200 200 202 201 199 201 206 210 209 209 219 231 252 294 313
214 157 151 161 175 182 182 191 205 221 228 219 201 194 191 183 185 189 188 186 187 186 184 183 181 181 182 181 178 175 173 174 179 184 182 181 194 211 216 208 189 149
76 86 107 117 117 127 146 185 210 203 200 196 186 176 169 165 168 174 176 175 172 171 168 165 162 163 168 174 175 178 183 179 175 174 174 172 162 128 128 144 141 120
81 86 96 103 105 109 113 120 141 157 162 166 167 161 153 148 148 149 152 152 142 132 137 142 142 144 156 164 164 171 179 174 168 166 161 148 126 111 107 99 79 56
105 110 110 110 110 112 118 125 135 143 150 159 163 154 139 130 126 121 115 108 99 96 105 111 106 107 123 135 138 150 158 154 148 136 119 112 113 111 105 91 72 49
116 116 114 113 112 112 115 120 125 128 130 134 135 128 118 115 116 113 106 100 97 95 93 88 83 84 90 99 108 120 130 131 130 121 114 115 118 113 100 89 80 66
113 112 111 111 109 107 108 110 113 115 116 117 116 115 115 112 108 105 101 97 95 92 88 81 75 74 75 79 86 92 103 117 126 123 122 124 122 111 97 90 87 77